CAPE
10 0 0 41 126 231 349 410 495 536 642 686 719 687 833 938 1195 1495 1518 1817 1947 2181 2502 2754 2785 2757 2621 2538 2656 2706 2562 2663 2620 2556 2632 2750 2671 2743 2728 2415 2427 3024 2658 2538 2634 2943 3152 3435 3554 3648 3854 4061 3791 3941 4128 4129 3972 3531 3980 4450 4125 4060 3891
13 0 0 22 143 224 311 428 532 566 667 655 723 820 882 1019 1423 1508 1574 1914 1958 2080 2304 2491 2735 2732 2607 2599 2483 2807 2687 2660 2706 2915 2696 3192 3251 3104 2754 2763 2729 3180 3507 3066 3073 3400 3560 3423 3546 3749 3797 3834 3714 4023 3795 3746 3707 3766 3482 4146 3999 4074 3988
28 1 5 27 142 245 385 486 516 561 636 664 712 826 1012 1223 1552 1606 1801 1881 2023 2076 2260 2359 2650 2597 2613 2747 2675 2721 2516 2422 2590 2472 2482 2112 2372 2014 2451 2800 2878 2608 2592 2971 3648 3132 3326 3244 3846 3921 3759 3472 3351 3801 3957 3699 3850 3624 3696 4092 3823 3548 3970
141 15 32 114 251 351 417 485 541 578 656 678 698 821 1011 1379 1586 1776 1905 1868 1949 2167 2388 2264 2418 2364 2544 2673 2602 2745 2625 2560 2363 2064 1967 1936 2055 2198 2676 2900 2892 2817 3030 2979 2780 2971 2772 3134 3433 3838 3921 3716 3706 3478 3457 3456 3317 3617 3757 4105 3726 3596 3785
427 56 20 44 189 404 448 510 568 694 688 744 808 932 1114 1431 1508 1667 1704 1675 1884 2018 2016 2096 2102 2206 2421 2472 2302 2361 2439 2412 2440 2271 2189 2243 2404 2470 2407 2158 2494 2619 2676 2772 3176 3414 3515 3420 2896 3247 3431 3826 3513 3547 3705 3730 3504 3972 3987 4013 3645 3475 3242
574 309 48 52 178 372 423 424 525 659 738 811 907 1035 1124 1324 1210 1307 1505 1594 1815 1878 2047 2107 2120 2384 2493 2313 2160 2166 2506 2718 2758 2860 2672 2831 2864 2386 2367 2580 2530 2621 2454 2767 2632 2723 3231 3050 2856 2870 2843 2675 2736 2746 2795 3058 3094 3259 3677 3869 3531 3272 3194
664 683 222 91 152 308 382 398 391 572 745 863 854 906 1030 1261 1180 1239 1353 1530 1843 1867 1828 1930 2034 2442 2492 2233 2421 2537 2670 2533 2712 2578 2636 2633 2658 2628 2604 2687 2851 2545 2445 2831 2824 2795 2922 3144 3177 3286 3117 2827 2846 2610 2860 3458 3348 3287 3616 3865 3933 3880 3851
461 740 536 114 70 162 363 516 460 570 782 668 733 900 1086 1080 1201 1357 1424 1449 1656 1511 1739 1727 2142 2634 2728 2660 2742 2493 2574 2469 2620 2608 2732 2502 2565 2675 2532 2645 2899 2922 3025 2774 2936 3120 2933 3162 2973 3068 3196 3025 3067 3205 3046 3505 3996 3291 3233 3411 3567 3493 3318
565 801 777 316 105 143 326 595 685 753 819 667 800 853 974 1041 1211 1501 1689 1685 1798 1716 1899 1910 2287 2863 3124 3099 3125 2978 2830 2827 2860 2733 2684 2420 2344 2228 2078 2308 2559 2819 2786 2500 2453 2940 2873 2816 2789 3216 3488 3322 3338 3639 3303 3754 3366 3262 3474 3502 3569 3499 3173
751 873 1070 658 219 248 370 477 717 880 857 944 1051 1082 1011 1129 1310 1549 1821 2069 2201 2142 2330 2337 2605 2936 3076 3085 3057 3028 3053 3067 2959 2625 2495 2352 2340 2191 2003 1898 2146 2554 2509 2397 2398 2415 2869 2886 2822 3211 3732 3529 3639 3784 3547 3506 3311 3076 3155 3587 3486 3402 3557
962 867 920 936 488 186 199 361 703 1014 1160 1237 1210 1096 1181 1357 1591 1643 1827 2087 2063 2272 2474 2448 2531 2684 2939 3025 2974 3046 3104 3084 2976 2734 2876 2882 2632 2251 2034 1924 1996 2259 2354 2263 2172 2217 2340 2968 3151 3310 3468 3027 3201 3467 3590 3396 3309 3471 3003 3067 3074 3355 3112
1118 1036 1028 1040 942 484 189 325 623 856 1052 1220 1297 1290 1280 1392 1412 1601 1938 1948 2051 2312 2662 2687 2572 2625 2754 2859 2886 3104 3100 2907 2878 2889 3085 3206 3139 2892 2211 2125 2135 2184 2320 2217 2144 2307 2266 2367 2696 2893 3364 3356 3144 3114 3334 3463 3502 3530 3432 2831 2810 3077 3078
1223 969 972 1160 1198 943 660 335 304 554 987 1208 1295 1369 1414 1484 1751 1879 2016 1977 2110 2244 2590 2724 2652 2746 2781 2840 2759 2961 3028 2863 2851 2839 2924 3294 3295 3337 2910 2407 2189 2099 2094 2183 2133 2134 2110 2124 2516 2919 2963 3257 3149 2828 3054 3274 3067 3419 3536 3239 2983 3104 3221
962 998 922 1016 950 840 682 570 558 492 719 1024 1267 1484 1458 1550 1603 1870 2086 1976 2059 2316 2459 2451 2580 2832 2803 2795 2769 2901 3078 3029 3001 3172 3285 3514 3597 3588 3303 2816 2308 2262 2172 2220 2117 1959 1914 1988 2037 2304 2516 2557 2740 2830 2869 3138 3038 3208 3277 3078 2936 2912 2980
845 751 876 922 1101 1142 995 874 762 740 855 959 1241 1270 1419 1611 1807 2119 2265 2322 2540 2426 2552 2686 2893 2949 2854 2991 2970 3067 3191 3257 3310 3524 3591 3589 3615 3570 3589 3390 2907 2728 2651 2585 2324 1824 1787 1862 1859 1959 2087 2116 2353 2581 2540 2309 2548 2694 2952 3045 3237 3076 2806
749 848 823 922 880 836 1072 1100 1087 1054 1166 1229 1176 1332 1461 1639 1879 2041 2144 2309 2532 2553 2634 3000 2960 3069 2984 3119 3205 3314 3330 3383 3371 3382 3491 3514 3550 3558 3542 3318 3102 2752 2809 2642 2536 2512 2516 2416 2311 2058 1898 1865 2060 2085 2014 1854 2120 2363 2244 2064 2291 2677 2738
620 846 822 803 812 875 1077 1246 1349 1364 1300 1301 1277 1364 1458 1710 1805 1941 2106 2471 2658 2580 2877 2692 2872 3002 3068 3184 3272 3268 3233 3274 3289 3331 3382 3456 3472 3510 3445 3258 3106 2974 3048 2946 2677 2617 2732 2595 2350 2054 1649 1495 1423 1522 1530 1640 1323 1257 1026 1048 1208 1951 2460
764 902 1018 939 852 968 1023 985 1077 1236 1352 1499 1416 1398 1426 1416 1513 1754 1988 2247 2208 2527 2677 2748 2867 2946 2864 2928 2650 2181 2219 2283 2648 2778 2988 3261 3269 3280 3172 3005 2944 2992 3063 2946 2766 3041 2328 2157 1974 1905 1648 1359 1428 1310 1388 1142 565 555 561 730 848 1057 1783
1196 1278 1376 1228 1058 883 906 906 875 1061 1202 1143 1159 1186 1324 1425 1446 1530 1856 1996 2458 2501 2239 2333 2436 2300 1811 1566 1410 1212 1132 1402 1871 2204 2309 2801 2913 2949 2872 2877 2918 2082 2266 1769 1769 1701 1609 1421 2050 2062 1882 1685 1966 1701 1149 769 697 621 808 766 876 932 1070
986 1045 1046 1080 1064 1045 1010 1011 976 925 898 894 848 805 1079 1321 1515 1719 1859 1658 1596 2040 1922 1754 1509 1402 1246 1337 1336 1328 1107 978 1192 1184 1321 1500 1665 1525 2020 1859 1881 1778 1583 1589 1466 1460 1170 947 2139 2284 2344 1881 1851 1677 962 921 916 869 819 755 696 738 886
947 926 949 1014 947 951 950 976 967 980 984 960 934 916 865 832 1035 791 868 812 886 1209 1328 1254 1022 1074 1140 1219 1315 1394 1253 1048 1004 854 1070 1226 1063 825 1120 1336 1188 1354 1297 1289 1546 1939 2175 2278 2360 2470 2251 1888 1503 1210 1090 1026 912 803 712 670 642 615 620
765 800 872 925 894 857 873 881 869 830 774 690 668 688 718 759 779 784 782 758 706 854 866 902 934 912 986 1135 1233 1071 978 831 796 718 1227 1256 950 562 796 976 1090 1237 1080 1010 1143 1172 1124 1109 1400 1805 1941 1724 1498 1266 1052 999 898 830 770 767 801 806 757
840 813 906 895 858 862 869 826 792 739 701 659 601 638 684 702 698 662 632 731 632 612 696 772 812 910 955 1088 1229 792 612 604 668 896 807 738 994 884 935 1196 1326 1360 1179 1124 1123 1135 1066 1147 1292 1428 1163 1099 1081 1040 1002 974 941 952 952 958 886 720 702
757 771 802 770 854 828 815 816 729 759 707 732 694 615 558 526 559 548 564 549 516 453 520 621 696 672 658 848 905 816 661 651 765 820 992 844 674 776 997 1077 1047 1001 1035 1048 996 1027 1049 1032 1069 1118 1150 1159 1155 1124 1093 1034 971 884 853 759 671 519 455
668 702 801 785 824 875 871 787 705 629 651 680 684 666 623 548 502 491 426 393 396 367 398 520 603 637 673 745 777 631 678 710 794 768 741 641 761 801 749 859 755 821 883 793 833 870 803 785 767 767 746 717 666 582 506 487 487 477 480 472 444 412 396
658 677 750 790 790 804 709 628 619 566 624 576 504 502 521 416 498 451 416 397 308 313 254 484 547 595 772 928 627 614 712 773 790 797 550 439 526 581 497 501 481 534 489 445 392 413 418 389 397 402 407 402 379 376 362 362 373 371 359 352 344 344 348
693 667 674 694 714 715 648 593 595 596 517 524 511 499 413 300 388 358 326 389 428 467 390 337 350 519 499 400 577 685 669 511 412 192 148 240 298 359 362 379 354 291 288 279 294 264 236 208 199 211 240 268 284 294 283 269 252 224 205 172 162 175 218
642 627 620 559 570 532 516 478 460 523 502 457 465 401 292 305 316 304 389 315 380 488 519 322 388 424 396 281 314 389 578 408 332 274 227 276 358 353 325 326 353 334 315 307 281 258 234 231 282 290 264 260 235 214 218 184 206 216 191 171 158 147 140
500 499 462 452 418 322 280 400 427 374 406 339 336 234 94 275 356 358 316 322 266 234 350 323 92 254 397 144 67 216 57 220 173 153 163 250 291 305 298 289 181 157 159 174 167 171 181 141 137 155 168 196 188 162 144 129 125 107 172 163 153 168 176
383 385 362 328 286 273 306 306 242 169 27 30 70 133 197 144 95 156 229 294 270 235 69 38 0 0 86 142 134 166 177 224 254 244 204 183 176 159 26 74 110 113 120 120 118 129 138 154 181 196 200 198 190 181 173 129 0 114 104 90 0 0 0
299 312 291 259 182 208 200 183 162 170 188 196 197 213 236 210 118 0 0 0 30 124 43 0 0 18 76 104 72 83 126 137 143 127 128 107 113 105 93 82 90 93 94 114 121 123 123 130 141 148 152 149 134 119 0 0 0 0 0 0 0 0 0
235 213 175 137 116 108 124 48 0 0 0 0 0 0 0 0 0 0 0 0 0 0 0 0 0 0 67 116 100 77 77 74 69 50 9 78 76 68 10 5 14 3 1 0 1 2 0 0 77 84 81 74 73 87 31 6 0 0 0 0 0 0 0
143 128 98 74 67 72 0 0 0 0 0 0 0 0 0 0 0 0 0 0 0 0 0 0 0 0 0 0 0 0 0 9 0 0 0 0 0 11 11 0 0 0 0 1 3 9 15 12 10 4 1 3 3 0 0 0 0 0 0 0 0 0 0
168 132 32 0 0 0 0 0 0 0 0 0 0 0 0 0 0 0 0 0 0 0 0 0 0 0 0 0 0 0 0 0 0 0 0 0 0 0 0 0 0 0 0 0 0 0 2 11 14 21 20 19 20 11 5 0 0 0 0 0 0 0 0
194 179 139 0 0 0 0 0 0 0 0 0 0 0 0 0 0 0 0 0 0 0 0 0 0 0 0 0 0 0 0 0 0 0 0 0 0 0 0 0 0 0 0 0 0 0 0 0 1 1 0 0 0 0 0 0 0 0 0 0 0 0 0
193 105 107 108 0 0 0 0 0 0 0 0 0 0 0 0 0 0 0 0 0 0 0 0 0 0 0 0 0 0 0 0 0 0 0 0 0 0 0 0 0 0 0 0 0 0 0 0 0 0 0 0 0 0 0 0 0 0 0 0 0 0 0
54 56 36 8 0 0 0 0 0 0 0 0 0 0 0 0 0 0 0 0 0 0 0 0 0 0 0 0 0 0 0 0 0 0 0 0 0 0 0 0 0 0 0 0 0 0 0 0 0 0 0 0 0 0 0 0 0 0 0 0 0 0 0
0 0 0 0 0 0 0 0 0 0 0 0 0 0 0 0 0 0 0 0 0 0 0 0 0 0 0 0 0 0 0 0 0 0 0 0 0 0 0 0 0 0 0 0 0 0 0 0 0 0 0 0 0 0 0 0 0 0 0 0 0 0 0
Wind_Speed
nan nan nan nan 13 11 9 9 9 9 9 10 10 7 7 8 8 8 7 6 4 4 5 5 5 6 5 5 4 5 5 5 5 5 6 7 7 7 6 5 5 4 5 5 5 6 6 6 5 6 5 5 5 5 5 5 5 5 4 4 3 3 3
nan nan nan nan 15 12 10 11 12 12 12 11 11 10 10 9 10 9 8 6 4 3 5 5 6 7 6 6 6 6 5 5 5 6 7 7 7 6 6 5 4 4 4 5 5 4 4 5 5 5 5 5 5 5 5 5 5 5 5 3 3 3 3
nan nan nan nan 18 15 13 14 14 14 12 12 12 12 12 12 12 10 9 8 6 5 6 5 5 6 8 8 8 7 6 7 7 6 5 5 5 5 4 4 3 4 4 4 4 4 3 4 3 4 5 5 6 5 5 5 4 5 4 3 3 2 3
25 nan nan 22 19 17 15 15 14 15 15 13 11 11 12 13 13 13 12 10 8 8 7 7 7 7 9 9 8 8 8 8 7 6 5 5 5 5 5 3 3 3 3 3 3 3 5 4 3 3 3 4 4 4 4 4 5 4 3 2 2 2 2
25 nan nan nan 23 22 20 18 16 17 16 15 14 13 13 14 15 15 14 13 11 9 9 8 9 9 11 10 11 10 8 7 8 7 7 7 7 7 5 3 3 2 3 4 4 4 4 4 4 3 3 2 3 2 2 3 3 3 2 2 2 2 2
27 24 nan nan 25 22 20 17 16 16 17 17 16 16 17 16 16 14 14 15 14 14 14 11 10 11 11 10 10 10 10 10 10 9 8 8 8 7 6 5 4 4 4 4 4 4 4 4 4 4 4 3 3 3 3 3 3 2 2 2 2 2 3
29 24 24 nan 23 22 20 19 17 18 19 19 19 19 19 18 15 15 15 15 15 14 13 12 11 12 12 12 11 11 10 9 9 8 8 7 8 7 7 7 7 7 7 8 6 6 5 4 4 4 4 4 4 4 4 4 4 4 4 3 3 3 3
26 24 23 21 nan 20 21 21 20 20 22 22 22 20 19 18 18 17 16 16 16 15 14 13 13 14 14 14 14 11 11 10 10 9 10 9 9 8 9 9 9 9 10 8 7 6 6 5 5 5 5 5 5 5 5 5 4 4 4 4 4 3 4
27 25 23 22 21 21 21 22 22 23 22 21 20 19 18 19 18 17 17 18 18 16 15 14 15 16 16 16 16 14 14 13 12 11 10 9 10 9 9 11 10 11 10 9 9 8 7 7 6 7 8 7 7 7 7 6 6 6 5 5 5 5 5
31 29 27 25 25 25 25 24 23 25 23 22 22 21 19 18 18 18 19 18 19 16 16 17 17 18 17 17 16 15 16 15 14 12 11 11 12 10 10 12 12 13 11 10 10 9 9 8 8 9 10 8 8 8 8 8 8 7 7 7 6 6 6
34 32 32 29 28 27 27 26 24 23 22 22 21 20 19 18 19 19 18 18 17 17 17 18 19 19 19 18 17 17 17 16 15 14 14 13 14 12 12 13 13 14 12 11 10 10 10 11 10 10 10 9 8 8 8 8 9 9 8 8 9 8 7
38 36 34 31 32 32 27 25 24 23 21 21 21 20 19 19 18 18 19 18 18 18 20 21 22 21 21 20 18 18 17 17 18 17 16 16 16 15 14 14 14 14 14 12 12 12 12 12 12 12 11 10 9 8 8 9 9 10 9 9 9 9 8
41 41 41 38 36 35 35 32 27 24 23 22 20 19 19 19 19 19 19 19 19 20 22 22 22 22 22 21 19 19 18 19 20 20 19 20 19 19 17 15 15 15 15 15 14 14 14 14 14 15 14 12 11 10 10 10 10 11 10 9 8 8 7
42 42 42 42 39 36 33 31 30 28 26 24 23 22 21 19 18 18 18 17 19 21 23 23 23 22 21 21 21 20 21 21 22 24 24 24 23 21 19 17 17 17 18 18 17 17 16 16 17 17 16 15 14 13 13 13 13 13 13 11 10 9 7
41 41 42 42 42 40 36 32 30 27 26 25 24 22 21 21 21 20 19 18 20 22 21 22 22 21 21 21 20 20 22 24 25 26 27 27 26 23 22 21 20 21 21 21 20 20 19 19 19 18 18 17 17 15 15 15 16 16 16 15 14 12 10
31 39 46 46 42 42 39 34 31 29 27 26 24 24 24 24 23 21 19 18 20 22 23 24 23 22 21 20 19 21 23 23 24 25 27 28 26 25 24 23 22 23 23 22 22 22 22 21 20 19 19 19 18 17 17 18 17 19 19 17 16 15 14
19 29 42 46 42 39 37 35 34 32 30 29 27 26 26 27 27 26 24 25 26 25 26 27 26 24 23 23 22 23 22 22 22 23 24 25 26 26 26 25 26 25 25 24 24 24 23 21 21 21 21 20 20 19 19 21 29 35 32 28 22 15 14
10 16 25 30 31 33 35 36 37 35 33 32 31 29 29 29 30 29 29 31 31 30 31 30 29 28 29 29 31 31 26 23 20 19 21 23 23 25 27 27 26 26 26 27 28 29 27 27 28 28 27 26 25 24 25 28 29 32 30 29 27 24 18
6 11 15 17 21 23 26 31 37 40 39 37 34 33 33 33 33 32 33 34 35 37 34 34 36 36 40 39 35 35 37 34 27 24 26 25 23 24 26 27 29 28 30 32 32 31 30 28 27 30 29 28 27 26 25 26 29 27 28 26 24 23 19
12 15 17 19 20 21 22 25 31 37 42 41 38 38 38 35 34 35 36 35 34 35 35 38 40 41 41 38 35 37 38 41 37 31 33 36 36 28 26 28 31 32 31 31 31 29 26 21 23 28 28 28 27 26 26 26 26 25 25 25 22 21 17
17 15 16 16 18 21 20 19 20 26 32 34 35 35 33 32 32 32 31 31 31 32 33 34 36 40 41 42 43 43 43 41 39 40 40 41 40 35 33 28 32 35 35 32 29 28 28 27 27 28 28 27 25 24 24 26 27 25 24 23 22 20 17
22 22 22 19 18 19 18 17 18 19 21 24 23 22 22 22 21 20 21 22 24 27 30 32 33 37 43 47 46 45 44 43 42 41 41 42 42 41 35 30 29 31 30 28 27 28 29 27 26 25 25 23 23 23 25 28 29 24 24 23 23 19 20
23 23 25 25 22 19 16 15 17 17 17 19 21 20 19 17 17 17 17 16 16 17 24 32 37 39 42 48 50 52 50 46 44 45 45 43 44 41 34 33 36 32 27 28 31 32 31 30 29 28 25 23 22 22 27 29 30 28 28 27 25 22 23
22 24 25 24 21 20 21 21 20 21 21 21 22 22 21 21 20 20 20 19 19 19 21 25 32 37 42 46 49 56 56 50 46 49 51 46 42 40 36 36 35 33 30 32 34 34 31 31 32 34 32 31 32 31 33 32 33 34 33 33 32 28 28
21 25 25 23 22 22 23 24 24 24 24 25 25 22 20 20 21 23 24 22 20 18 18 19 22 26 33 38 43 48 53 53 51 49 50 47 43 41 40 38 35 34 33 36 40 40 37 35 37 37 37 36 36 37 36 34 35 37 37 37 37 34 33
17 21 23 21 21 21 23 22 24 26 26 26 26 27 28 29 29 28 25 22 20 20 19 18 19 20 25 32 38 42 45 48 49 48 47 46 43 41 40 40 40 38 38 40 42 42 40 39 38 39 38 37 35 33 33 32 33 33 34 36 36 34 31
18 20 23 23 21 22 24 25 24 25 26 23 24 25 25 26 28 28 23 21 23 23 17 14 16 19 21 25 31 35 36 36 38 38 39 40 39 39 40 40 42 41 40 40 41 41 40 38 37 36 35 32 31 30 31 30 30 31 32 33 34 33 30
23 24 25 26 26 26 26 26 28 29 29 27 27 26 25 27 30 30 28 27 25 22 19 18 18 17 20 22 24 24 23 22 22 21 23 25 29 35 38 37 36 35 35 34 35 35 35 34 33 33 31 29 28 29 30 31 32 28 31 33 32 32 31
25 26 27 27 29 29 29 29 28 30 29 26 26 28 nan 36 36 34 34 33 28 25 25 22 nan 22 23 23 nan 23 nan 22 20 20 20 21 23 26 29 29 29 30 31 32 32 32 32 32 31 32 32 29 27 27 29 29 30 31 29 31 31 31 31
24 25 27 29 30 30 31 31 31 31 nan nan nan 26 26 29 nan 32 35 33 27 26 nan nan nan nan nan 23 22 22 22 20 19 19 21 21 22 24 nan nan 30 30 31 32 31 30 30 30 30 29 29 29 28 28 28 28 nan 29 30 nan nan nan nan
26 23 24 26 26 26 27 29 32 32 33 32 32 29 28 28 30 nan nan nan nan 26 nan nan nan nan nan 25 nan nan 21 21 19 20 21 21 21 22 nan nan nan nan nan 29 29 28 28 28 28 28 29 29 29 29 nan nan nan nan nan nan nan nan nan
28 25 24 24 23 23 24 nan nan nan nan nan nan nan nan nan nan nan nan nan nan nan nan nan nan nan nan 24 23 nan nan nan nan nan nan nan nan nan nan nan nan nan nan nan nan nan nan nan nan nan nan nan nan nan nan nan nan nan nan nan nan nan nan
29 27 nan nan nan nan nan nan nan nan nan nan nan nan nan nan nan nan nan nan nan nan nan nan nan nan nan nan nan nan nan nan nan nan nan nan nan nan nan nan nan nan nan nan nan nan nan nan nan nan nan nan nan nan nan nan nan nan nan nan nan nan nan
31 30 nan nan nan nan nan nan nan nan nan nan nan nan nan nan nan nan nan nan nan nan nan nan nan nan nan nan nan nan nan nan nan nan nan nan nan nan nan nan nan nan nan nan nan nan nan nan nan nan nan nan nan nan nan nan nan nan nan nan nan nan nan
33 33 32 nan nan nan nan nan nan nan nan nan nan nan nan nan nan nan nan nan nan nan nan nan nan nan nan nan nan nan nan nan nan nan nan nan nan nan nan nan nan nan nan nan nan nan nan nan nan nan nan nan nan nan nan nan nan nan nan nan nan nan nan
36 36 35 34 nan nan nan nan nan nan nan nan nan nan nan nan nan nan nan nan nan nan nan nan nan nan nan nan nan nan nan nan nan nan nan nan nan nan nan nan nan nan nan nan nan nan nan nan nan nan nan nan nan nan nan nan nan nan nan nan nan nan nan
nan nan nan nan nan nan nan nan nan nan nan nan nan nan nan nan nan nan nan nan nan nan nan nan nan nan nan nan nan nan nan nan nan nan nan nan nan nan nan nan nan nan nan nan nan nan nan nan nan nan nan nan nan nan nan nan nan nan nan nan nan nan nan
nan nan nan nan nan nan nan nan nan nan nan nan nan nan nan nan nan nan nan nan nan nan nan nan nan nan nan nan nan nan nan nan nan nan nan nan nan nan nan nan nan nan nan nan nan nan nan nan nan nan nan nan nan nan nan nan nan nan nan nan nan nan nan
Wind_Direction
nan nan nan nan 208 201 198 205 219 215 206 203 201 197 197 202 209 210 206 208 188 183 191 182 175 181 185 187 179 186 187 187 182 168 160 155 158 159 153 148 140 141 138 137 147 143 147 148 144 143 150 146 145 155 158 159 158 165 180 185 186 189 194
nan nan nan nan 208 203 199 205 215 215 213 208 205 208 206 211 216 215 212 215 208 205 215 199 189 186 192 198 200 204 205 205 202 193 181 181 178 166 157 157 152 152 145 143 150 155 160 151 143 141 140 136 135 149 153 160 164 167 182 206 194 204 207
nan nan nan nan 207 206 207 208 211 214 219 214 211 212 212 215 220 222 218 217 215 209 221 225 209 198 201 209 212 209 210 212 211 203 181 163 151 140 167 173 163 150 143 157 158 151 164 151 150 145 140 139 144 153 152 155 163 164 180 198 199 209 225
231 nan nan 210 208 208 209 212 214 212 215 219 219 221 219 221 223 221 217 219 217 215 218 220 219 211 211 215 213 213 214 216 210 201 184 177 175 187 197 202 188 166 171 161 172 178 177 174 157 157 155 146 149 152 155 154 160 166 175 194 195 206 221
231 nan nan nan 207 207 208 210 212 214 217 219 218 219 224 226 229 225 220 216 215 214 216 219 216 216 216 220 217 214 216 221 220 209 203 202 203 206 204 190 203 167 179 196 227 222 205 177 161 169 174 174 150 168 160 167 166 182 192 206 190 211 218
230 230 nan nan 210 209 210 213 216 219 220 221 220 221 221 226 227 232 229 226 219 214 215 218 219 224 224 225 223 224 226 225 222 220 215 221 223 216 215 214 208 198 204 215 226 228 227 197 179 178 171 177 178 170 178 191 196 197 226 236 215 211 222
224 227 221 nan 214 213 214 217 220 222 222 222 221 219 221 226 230 232 234 234 234 231 225 222 221 226 227 228 229 235 238 234 230 225 223 226 232 225 223 222 220 215 211 223 226 231 232 226 213 209 201 188 196 198 207 208 202 212 221 234 238 239 236
214 218 218 218 nan 219 220 222 227 229 230 228 228 227 227 228 229 232 236 237 239 237 231 229 229 229 232 233 235 238 237 235 235 231 230 232 237 235 232 230 232 231 232 228 230 237 233 232 228 235 236 226 228 232 228 226 225 212 226 235 241 239 253
206 210 216 218 221 222 225 228 231 235 241 242 241 239 237 236 237 238 240 241 241 244 244 242 240 239 239 239 241 245 241 240 237 235 237 237 236 237 237 241 240 242 241 239 238 244 239 236 235 242 245 242 241 246 244 249 238 235 238 241 247 244 236
197 199 206 212 215 219 224 226 229 231 238 240 240 241 245 242 243 243 244 246 246 250 250 249 246 246 246 245 246 250 251 248 242 242 241 243 241 245 246 244 245 247 245 245 244 246 248 239 234 242 247 245 248 251 250 254 254 251 251 254 254 251 248
197 198 201 206 210 214 219 223 229 231 236 241 244 246 249 250 249 249 250 251 251 249 250 249 248 247 248 249 252 256 259 259 254 249 247 245 243 249 252 252 249 250 250 247 246 247 246 247 243 243 248 246 248 251 253 254 257 260 256 257 257 257 251
202 202 203 205 209 213 215 219 222 225 229 233 238 243 247 249 251 250 248 253 252 251 250 250 250 252 252 249 249 251 258 262 261 258 255 252 249 247 248 252 253 254 254 252 250 250 250 249 247 247 251 250 246 247 250 254 259 261 256 251 254 257 255
205 208 207 206 208 209 211 212 212 211 215 219 226 232 235 241 244 244 245 248 249 249 250 251 252 255 256 255 253 249 251 254 257 257 255 253 250 249 247 248 251 254 255 256 255 256 255 256 255 254 249 250 250 249 255 259 259 261 260 254 254 257 257
213 214 212 211 210 210 210 212 213 211 210 211 213 218 222 228 235 241 245 247 248 248 249 247 251 253 255 255 252 249 248 247 248 252 253 252 251 251 250 248 248 251 251 253 255 256 256 255 256 257 256 251 249 248 253 261 262 265 265 263 261 261 262
217 217 216 213 212 212 212 213 215 217 216 214 215 218 221 226 228 230 233 235 242 248 250 248 247 248 250 250 250 250 248 246 245 246 250 251 251 249 249 248 248 250 251 253 253 252 254 255 253 251 252 252 253 250 250 252 257 260 264 266 267 266 260
220 218 214 211 210 212 212 213 216 220 222 222 223 223 226 229 233 237 241 241 242 245 246 248 248 245 246 247 247 246 247 247 245 244 246 249 250 250 249 249 249 251 253 253 253 252 251 253 253 251 254 257 258 258 254 251 255 256 259 256 254 255 256
213 209 206 202 204 208 211 213 215 219 223 225 227 229 232 235 239 242 246 247 247 246 246 249 247 246 244 242 244 245 247 247 247 247 248 247 247 246 247 248 247 248 251 253 253 252 252 251 250 249 251 254 255 256 256 253 246 237 240 240 240 246 253
191 195 199 200 203 209 213 217 220 221 221 224 227 232 236 240 244 247 249 252 254 251 249 250 250 251 249 246 243 240 240 247 252 254 252 250 249 248 246 245 246 246 247 250 253 255 255 255 253 250 248 249 250 251 250 253 246 247 247 246 243 241 245
158 175 193 200 207 210 212 214 216 218 219 221 224 228 232 237 242 246 249 253 255 254 254 249 247 248 248 247 249 250 247 238 236 246 251 247 247 253 252 248 248 249 251 250 249 247 243 238 246 252 251 250 251 253 254 255 246 249 253 254 253 248 244
206 195 197 203 208 210 208 203 201 205 210 214 219 224 229 234 238 241 244 250 254 259 259 254 251 253 255 254 253 252 252 250 244 237 243 246 241 232 251 258 254 253 250 249 249 250 252 253 253 257 256 253 252 252 252 251 243 243 247 250 251 249 249
222 215 204 202 202 199 199 196 192 195 202 207 216 224 229 233 236 240 246 251 255 254 258 255 253 250 251 255 254 253 254 255 251 244 246 254 252 243 239 239 247 248 245 241 242 245 242 238 240 247 251 252 255 257 256 254 241 243 243 244 245 245 251
219 222 219 215 215 208 206 207 205 201 199 201 209 219 226 235 237 243 248 255 260 260 259 259 254 251 249 251 250 251 252 253 252 250 249 256 254 246 246 249 249 252 255 254 251 251 248 244 242 246 248 249 250 253 255 254 244 243 245 244 243 243 255
207 213 218 217 222 226 226 225 221 222 224 223 221 220 218 227 238 246 252 257 260 269 264 256 250 249 252 252 250 250 249 249 246 247 246 248 252 248 244 243 243 243 242 243 245 246 245 245 244 244 242 240 243 248 255 254 246 244 243 243 242 251 256
210 214 216 218 222 224 222 223 224 226 232 233 229 228 227 227 231 234 235 237 240 246 245 248 249 251 249 249 248 247 246 245 246 246 248 249 248 246 245 243 242 241 239 238 241 243 239 238 243 245 245 247 249 252 257 255 251 247 246 246 245 251 258
210 216 219 220 224 227 226 230 235 235 236 238 237 234 234 238 242 245 248 246 243 240 245 248 241 238 244 245 247 245 240 239 241 244 246 248 246 245 246 246 243 239 237 238 241 242 242 245 249 251 251 251 253 254 258 258 254 248 246 247 246 251 258
219 218 230 233 232 236 236 229 232 239 242 242 241 242 245 249 250 251 251 248 245 244 247 250 252 247 244 237 235 236 237 237 242 244 247 247 246 245 242 240 239 239 240 241 243 245 247 250 253 254 253 252 253 254 256 258 257 252 249 249 249 246 255
237 231 238 243 246 248 246 241 238 239 241 242 240 241 243 245 250 253 252 249 247 242 242 249 251 252 251 245 233 232 237 239 242 243 243 244 245 245 243 240 241 242 241 240 243 246 248 251 254 256 256 255 255 255 256 257 257 255 251 252 252 250 251
252 250 247 247 248 249 250 255 254 245 239 240 240 239 241 245 249 251 253 255 252 250 253 260 260 253 247 238 236 228 226 236 240 239 238 234 235 238 240 243 249 253 252 247 246 247 249 251 255 259 260 258 256 256 255 255 252 255 258 252 251 252 249
256 255 253 251 252 253 257 256 251 250 250 243 240 239 nan 248 251 254 256 254 251 250 254 257 nan 253 243 235 nan 229 nan 233 239 234 230 231 233 236 242 246 252 257 257 255 251 249 251 252 255 259 262 262 262 260 259 257 257 250 254 256 254 255 254
258 257 254 252 251 253 256 257 256 255 nan nan nan 248 246 253 nan 260 259 258 256 255 nan nan nan nan nan 232 230 229 227 229 231 228 226 229 230 234 nan nan 245 248 251 254 254 253 252 254 258 262 265 265 265 264 262 261 nan 260 254 nan nan nan nan
258 256 252 249 249 252 256 257 257 256 254 253 252 251 252 256 259 nan nan nan nan 255 nan nan nan nan nan 235 nan nan 230 233 234 231 232 234 236 237 nan nan nan nan nan 251 252 253 254 255 255 257 259 261 263 264 nan nan nan nan nan nan nan nan nan
258 258 256 253 254 260 267 nan nan nan nan nan nan nan nan nan nan nan nan nan nan nan nan nan nan nan nan 239 239 nan nan nan nan nan nan nan nan nan nan nan nan nan nan nan nan nan nan nan nan nan nan nan nan nan nan nan nan nan nan nan nan nan nan
259 259 nan nan nan nan nan nan nan nan nan nan nan nan nan nan nan nan nan nan nan nan nan nan nan nan nan nan nan nan nan nan nan nan nan nan nan nan nan nan nan nan nan nan nan nan nan nan nan nan nan nan nan nan nan nan nan nan nan nan nan nan nan
262 262 nan nan nan nan nan nan nan nan nan nan nan nan nan nan nan nan nan nan nan nan nan nan nan nan nan nan nan nan nan nan nan nan nan nan nan nan nan nan nan nan nan nan nan nan nan nan nan nan nan nan nan nan nan nan nan nan nan nan nan nan nan
258 261 263 nan nan nan nan nan nan nan nan nan nan nan nan nan nan nan nan nan nan nan nan nan nan nan nan nan nan nan nan nan nan nan nan nan nan nan nan nan nan nan nan nan nan nan nan nan nan nan nan nan nan nan nan nan nan nan nan nan nan nan nan
257 260 260 259 nan nan nan nan nan nan nan nan nan nan nan nan nan nan nan nan nan nan nan nan nan nan nan nan nan nan nan nan nan nan nan nan nan nan nan nan nan nan nan nan nan nan nan nan nan nan nan nan nan nan nan nan nan nan nan nan nan nan nan
nan nan nan nan nan nan nan nan nan nan nan nan nan nan nan nan nan nan nan nan nan nan nan nan nan nan nan nan nan nan nan nan nan nan nan nan nan nan nan nan nan nan nan nan nan nan nan nan nan nan nan nan nan nan nan nan nan nan nan nan nan nan nan
nan nan nan nan nan nan nan nan nan nan nan nan nan nan nan nan nan nan nan nan nan nan nan nan nan nan nan nan nan nan nan nan nan nan nan nan nan nan nan nan nan nan nan nan nan nan nan nan nan nan nan nan nan nan nan nan nan nan nan nan nan nan nan